Time,TemperatureF,DewpointF,PressureIn,WindDirection,WindDirectionDegrees,WindSpeedMPH,WindSpeedGustMPH,Humidity,HourlyPrecipIn,Conditions,Clouds,dailyrainin,SoftwareType,DateUTC
2013-01-29 00:22:00,58.0,24.0,29.80,NW,319,0.0,6.0,27,0.00,,,0.00,,2013-01-29 06:22:00,
2013-01-29 00:32:00,58.0,24.0,29.80,NW,319,0.0,6.0,27,0.00,,,0.00,,2013-01-29 06:32:00,
2013-01-29 00:42:00,58.0,24.0,29.80,NW,319,0.0,6.0,27,0.00,,,0.00,,2013-01-29 06:42:00,
2013-01-29 00:52:00,58.0,25.0,29.79,West,260,1.0,12.0,28,0.00,,,0.00,,2013-01-29 06:52:00,
2013-01-29 01:01:00,58.0,25.0,29.79,West,260,1.0,12.0,28,0.00,,,0.00,,2013-01-29 07:01:00,
2013-01-29 01:11:00,58.0,25.0,29.79,West,260,1.0,12.0,28,0.00,,,0.00,,2013-01-29 07:11:00,
2013-01-29 01:21:00,58.0,25.0,29.78,WSW,254,0.0,11.0,28,0.00,,,0.00,,2013-01-29 07:21:00,
2013-01-29 01:30:00,57.0,25.0,29.79,WNW,299,0.0,12.0,29,0.00,,,0.00,,2013-01-29 07:30:00,
2013-01-29 01:31:00,58.0,25.0,29.78,WSW,254,0.0,11.0,28,0.00,,,0.00,,2013-01-29 07:31:00,
2013-01-29 01:42:00,58.0,25.0,29.78,WSW,254,0.0,11.0,28,0.00,,,0.00,,2013-01-29 07:42:00,
2013-01-29 01:52:00,57.0,25.0,29.79,WNW,299,0.0,12.0,29,0.00,,,0.00,,2013-01-29 07:52:00,
2013-01-29 02:02:00,57.0,25.0,29.79,WNW,299,0.0,12.0,29,0.00,,,0.00,,2013-01-29 08:02:00,
2013-01-29 02:11:00,57.0,25.0,29.79,WNW,299,0.0,12.0,29,0.00,,,0.00,,2013-01-29 08:11:00,
2013-01-29 02:21:00,57.0,25.0,29.79,WNW,299,0.0,12.0,29,0.00,,,0.00,,2013-01-29 08:21:00,
2013-01-29 02:52:00,56.0,25.0,29.77,SSE,165,0.0,8.0,30,0.00,,,0.00,,2013-01-29 08:52:00,
2013-01-29 03:01:00,56.0,25.0,29.77,SSE,165,0.0,8.0,30,0.00,,,0.00,,2013-01-29 09:01:00,
2013-01-29 03:11:00,56.0,25.0,29.77,SSE,165,0.0,8.0,30,0.00,,,0.00,,2013-01-29 09:11:00,
2013-01-29 03:21:00,55.0,24.0,29.76,West,268,3.0,8.0,30,0.00,,,0.00,,2013-01-29 09:21:00,
2013-01-29 03:31:00,55.0,24.0,29.76,West,268,3.0,8.0,30,0.00,,,0.00,,2013-01-29 09:31:00,
2013-01-29 03:42:00,55.0,24.0,29.76,West,268,3.0,8.0,30,0.00,,,0.00,,2013-01-29 09:42:00,
2013-01-29 03:52:00,55.0,25.0,29.76,SSW,199,1.0,12.0,31,0.00,,,0.00,,2013-01-29 09:52:00,
2013-01-29 04:01:00,55.0,25.0,29.76,SSW,199,1.0,12.0,31,0.00,,,0.00,,2013-01-29 10:01:00,
2013-01-29 04:11:00,55.0,25.0,29.76,SSW,199,1.0,12.0,31,0.00,,,0.00,,2013-01-29 10:11:00,
2013-01-29 04:21:00,55.0,25.0,29.76,SSW,199,1.0,12.0,31,0.00,,,0.00,,2013-01-29 10:21:00,
2013-01-29 04:52:00,54.0,27.0,29.74,NW,304,0.0,0.0,35,0.00,,,0.00,,2013-01-29 10:52:00,
2013-01-29 05:02:00,54.0,27.0,29.74,NW,304,0.0,0.0,35,0.00,,,0.00,,2013-01-29 11:02:00,
2013-01-29 05:11:00,54.0,27.0,29.74,NW,304,0.0,0.0,35,0.00,,,0.00,,2013-01-29 11:11:00,
2013-01-29 05:21:00,53.0,27.0,29.73,NW,318,0.0,13.0,37,0.00,,,0.00,,2013-01-29 11:21:00,
2013-01-29 05:31:00,53.0,27.0,29.70,SSE,155,1.0,11.0,37,0.00,,,0.00,,2013-01-29 11:31:00,
2013-01-29 05:32:00,53.0,27.0,29.73,NW,318,0.0,13.0,37,0.00,,,0.00,,2013-01-29 11:32:00,
2013-01-29 05:42:00,53.0,27.0,29.73,NW,318,0.0,13.0,37,0.00,,,0.00,,2013-01-29 11:42:00,
2013-01-29 05:52:00,53.0,27.0,29.70,SSE,155,1.0,11.0,37,0.00,,,0.00,,2013-01-29 11:52:00,
2013-01-29 06:02:00,53.0,27.0,29.70,SSE,155,1.0,11.0,37,0.00,,,0.00,,2013-01-29 12:02:00,
2013-01-29 06:12:00,53.0,27.0,29.70,SSE,155,1.0,11.0,37,0.00,,,0.00,,2013-01-29 12:12:00,
2013-01-29 06:22:00,53.0,27.0,29.70,SSE,155,1.0,11.0,37,0.00,,,0.00,,2013-01-29 12:22:00,
2013-01-29 06:53:00,53.0,28.0,29.70,SSW,213,0.0,8.0,38,0.00,,,0.00,,2013-01-29 12:53:00,
2013-01-29 07:01:00,52.0,27.0,29.71,SSW,199,2.0,11.0,38,0.00,,,0.00,,2013-01-29 13:01:00,
2013-01-29 07:02:00,53.0,28.0,29.70,SSW,213,0.0,8.0,38,0.00,,,0.00,,2013-01-29 13:02:00,
2013-01-29 07:12:00,53.0,28.0,29.70,SSW,213,0.0,8.0,38,0.00,,,0.00,,2013-01-29 13:12:00,
2013-01-29 07:22:00,52.0,27.0,29.71,SSW,199,2.0,11.0,38,0.00,,,0.00,,2013-01-29 13:22:00,
2013-01-29 07:32:00,52.0,27.0,29.71,SSW,199,2.0,11.0,38,0.00,,,0.00,,2013-01-29 13:32:00,
2013-01-29 07:43:00,52.0,27.0,29.71,SSW,199,2.0,11.0,38,0.00,,,0.00,,2013-01-29 13:43:00,
2013-01-29 07:52:00,52.0,27.0,29.71,SSW,199,2.0,11.0,38,0.00,,,0.00,,2013-01-29 13:52:00,
2013-01-29 09:00:00,48.0,28.0,29.73,WNW,284,3.0,14.0,45,0.00,,,0.00,,2013-01-29 15:00:00,
2013-01-29 09:22:00,48.0,28.0,29.73,WNW,284,3.0,14.0,45,0.00,,,0.00,,2013-01-29 15:22:00,
2013-01-29 09:33:00,48.0,28.0,29.73,WNW,284,3.0,14.0,45,0.00,,,0.00,,2013-01-29 15:33:00,
2013-01-29 09:43:00,48.0,28.0,29.73,WNW,284,3.0,14.0,45,0.00,,,0.00,,2013-01-29 15:43:00,
2013-01-29 09:53:00,48.0,28.0,29.73,WNW,284,3.0,14.0,45,0.00,,,0.00,,2013-01-29 15:53:00,
2013-01-29 10:23:00,47.0,30.0,29.73,WNW,291,7.0,25.0,51,0.00,,,0.00,,2013-01-29 16:23:00,
2013-01-29 10:33:00,47.0,30.0,29.73,WNW,291,7.0,25.0,51,0.00,,,0.00,,2013-01-29 16:33:00,
2013-01-29 10:43:00,47.0,30.0,29.73,WNW,291,7.0,25.0,51,0.00,,,0.00,,2013-01-29 16:43:00,
2013-01-29 10:53:00,44.0,28.0,29.76,NW,305,16.0,31.0,52,0.00,,,0.00,,2013-01-29 16:53:00,
2013-01-29 11:03:00,44.0,28.0,29.76,NW,305,16.0,31.0,52,0.00,,,0.00,,2013-01-29 17:03:00,
2013-01-29 11:12:00,44.0,28.0,29.76,NW,305,16.0,31.0,52,0.00,,,0.00,,2013-01-29 17:12:00,
2013-01-29 11:22:00,45.0,28.0,29.75,NW,304,19.0,35.0,51,0.00,,,0.00,,2013-01-29 17:22:00,
2013-01-29 11:32:00,45.0,28.0,29.75,NW,304,19.0,35.0,51,0.00,,,0.00,,2013-01-29 17:32:00,
2013-01-29 11:42:00,45.0,28.0,29.75,NW,304,19.0,35.0,51,0.00,,,0.00,,2013-01-29 17:42:00,
2013-01-29 11:52:00,44.0,27.0,29.77,WNW,289,19.0,33.0,51,0.00,,,0.00,,2013-01-29 17:52:00,
2013-01-29 12:03:00,44.0,27.0,29.77,WNW,289,19.0,33.0,51,0.00,,,0.00,,2013-01-29 18:03:00,
2013-01-29 12:12:00,44.0,27.0,29.77,WNW,289,19.0,33.0,51,0.00,,,0.00,,2013-01-29 18:12:00,
2013-01-29 12:22:00,43.0,28.0,29.78,WNW,294,18.0,34.0,56,0.00,,,0.00,,2013-01-29 18:22:00,
2013-01-29 12:30:00,45.0,27.0,29.77,West,271,17.0,31.0,48,0.00,,,0.00,,2013-01-29 18:30:00,
2013-01-29 12:33:00,43.0,28.0,29.78,WNW,294,18.0,34.0,56,0.00,,,0.00,,2013-01-29 18:33:00,
2013-01-29 12:42:00,43.0,28.0,29.78,WNW,294,18.0,34.0,56,0.00,,,0.00,,2013-01-29 18:42:00,
2013-01-29 12:52:00,45.0,27.0,29.77,West,271,17.0,31.0,48,0.00,,,0.00,,2013-01-29 18:52:00,
2013-01-29 13:02:00,45.0,27.0,29.77,West,271,17.0,31.0,48,0.00,,,0.00,,2013-01-29 19:02:00,
2013-01-29 13:12:00,45.0,27.0,29.77,West,271,17.0,31.0,48,0.00,,,0.00,,2013-01-29 19:12:00,
2013-01-29 13:22:00,45.0,27.0,29.77,West,271,17.0,31.0,48,0.00,,,0.00,,2013-01-29 19:22:00,
2013-01-29 13:52:00,48.0,24.0,29.74,WNW,284,14.0,27.0,38,0.00,,,0.00,,2013-01-29 19:52:00,
2013-01-29 14:02:00,48.0,24.0,29.74,WNW,284,14.0,27.0,38,0.00,,,0.00,,2013-01-29 20:02:00,
2013-01-29 14:12:00,48.0,24.0,29.74,WNW,284,14.0,27.0,38,0.00,,,0.00,,2013-01-29 20:12:00,
2013-01-29 14:22:00,49.0,20.0,29.72,West,270,17.0,30.0,31,0.00,,,0.00,,2013-01-29 20:22:00,
2013-01-29 14:30:00,49.0,16.0,29.72,West,277,18.0,31.0,27,0.00,,,0.00,,2013-01-29 20:30:00,
2013-01-29 14:33:00,49.0,20.0,29.72,West,270,17.0,30.0,31,0.00,,,0.00,,2013-01-29 20:33:00,
2013-01-29 14:42:00,49.0,20.0,29.72,West,270,17.0,30.0,31,0.00,,,0.00,,2013-01-29 20:42:00,
2013-01-29 14:53:00,49.0,16.0,29.72,West,277,18.0,31.0,27,0.00,,,0.00,,2013-01-29 20:53:00,
2013-01-29 15:02:00,49.0,16.0,29.72,West,277,18.0,31.0,27,0.00,,,0.00,,2013-01-29 21:02:00,
2013-01-29 15:12:00,49.0,16.0,29.72,West,277,18.0,31.0,27,0.00,,,0.00,,2013-01-29 21:12:00,
2013-01-29 15:22:00,49.0,16.0,29.72,West,277,18.0,31.0,27,0.00,,,0.00,,2013-01-29 21:22:00,
2013-01-29 15:30:00,49.0,16.0,29.72,West,268,16.0,30.0,26,0.00,,,0.00,,2013-01-29 21:30:00,
2013-01-29 15:53:00,49.0,16.0,29.72,West,268,16.0,30.0,26,0.00,,,0.00,,2013-01-29 21:53:00,
2013-01-29 16:03:00,49.0,16.0,29.72,West,268,16.0,30.0,26,0.00,,,0.00,,2013-01-29 22:03:00,
2013-01-29 16:12:00,49.0,16.0,29.72,West,268,16.0,30.0,26,0.00,,,0.00,,2013-01-29 22:12:00,
2013-01-29 16:22:00,49.0,16.0,29.72,West,268,16.0,30.0,26,0.00,,,0.00,,2013-01-29 22:22:00,
2013-01-29 16:53:00,47.0,12.0,29.71,West,263,14.0,34.0,24,0.00,,,0.00,,2013-01-29 22:53:00,
2013-01-29 17:02:00,47.0,12.0,29.71,West,263,14.0,34.0,24,0.00,,,0.00,,2013-01-29 23:02:00,
2013-01-29 17:12:00,47.0,12.0,29.71,West,263,14.0,34.0,24,0.00,,,0.00,,2013-01-29 23:12:00,
2013-01-29 17:22:00,46.0,12.0,29.74,WSW,239,18.0,33.0,25,0.00,,,0.00,,2013-01-29 23:22:00,
2013-01-29 17:32:00,46.0,12.0,29.74,WSW,239,18.0,33.0,25,0.00,,,0.00,,2013-01-29 23:32:00,
2013-01-29 17:42:00,46.0,12.0,29.74,WSW,239,18.0,33.0,25,0.00,,,0.00,,2013-01-29 23:42:00,
2013-01-29 17:53:00,44.0,9.0,29.73,West,277,18.0,31.0,23,0.00,,,0.00,,2013-01-29 23:53:00,
2013-01-29 18:02:00,44.0,9.0,29.73,West,277,18.0,31.0,23,0.00,,,0.00,,2013-01-30 00:02:00,
2013-01-29 18:12:00,44.0,9.0,29.73,West,277,18.0,31.0,23,0.00,,,0.00,,2013-01-30 00:12:00,
2013-01-29 18:22:00,41.0,6.0,29.75,NW,313,13.0,25.0,23,0.00,,,0.00,,2013-01-30 00:22:00,
2013-01-29 18:31:00,40.0,7.0,29.77,WSW,240,6.0,20.0,25,0.00,,,0.00,,2013-01-30 00:31:00,
2013-01-29 18:32:00,41.0,6.0,29.75,NW,313,13.0,25.0,23,0.00,,,0.00,,2013-01-30 00:32:00,
2013-01-29 18:43:00,41.0,6.0,29.75,NW,313,13.0,25.0,23,0.00,,,0.00,,2013-01-30 00:43:00,
2013-01-29 18:53:00,40.0,7.0,29.77,WSW,240,6.0,20.0,25,0.00,,,0.00,,2013-01-30 00:53:00,
2013-01-29 19:02:00,40.0,7.0,29.77,WSW,240,6.0,20.0,25,0.00,,,0.00,,2013-01-30 01:02:00,
2013-01-29 19:12:00,40.0,7.0,29.77,WSW,240,6.0,20.0,25,0.00,,,0.00,,2013-01-30 01:12:00,
2013-01-29 19:22:00,40.0,7.0,29.77,WSW,240,6.0,20.0,25,0.00,,,0.00,,2013-01-30 01:22:00,
2013-01-29 20:01:00,37.0,10.0,29.78,NW,313,13.0,29.0,32,0.00,,,0.00,,2013-01-30 02:01:00,
2013-01-29 20:22:00,37.0,10.0,29.78,NW,313,13.0,29.0,32,0.00,,,0.00,,2013-01-30 02:22:00,
2013-01-29 20:33:00,37.0,10.0,29.78,NW,313,13.0,29.0,32,0.00,,,0.00,,2013-01-30 02:33:00,
2013-01-29 20:42:00,37.0,10.0,29.78,NW,313,13.0,29.0,32,0.00,,,0.00,,2013-01-30 02:42:00,
2013-01-29 20:53:00,37.0,10.0,29.78,NW,313,13.0,29.0,32,0.00,,,0.00,,2013-01-30 02:53:00,
2013-01-29 21:22:00,36.0,10.0,29.84,WNW,301,5.0,21.0,34,0.00,,,0.00,,2013-01-30 03:22:00,
2013-01-29 21:32:00,36.0,10.0,29.84,WNW,301,5.0,21.0,34,0.00,,,0.00,,2013-01-30 03:32:00,
2013-01-29 21:42:00,36.0,10.0,29.84,WNW,301,5.0,21.0,34,0.00,,,0.00,,2013-01-30 03:42:00,
2013-01-29 21:52:00,35.0,10.0,29.87,West,281,8.0,16.0,35,0.00,,,0.00,,2013-01-30 03:52:00,
2013-01-29 22:00:00,35.0,12.0,29.87,West,281,6.0,14.0,38,0.00,,,0.00,,2013-01-30 04:00:00,
2013-01-29 22:02:00,35.0,10.0,29.87,West,281,8.0,16.0,35,0.00,,,0.00,,2013-01-30 04:02:00,
2013-01-29 22:12:00,35.0,10.0,29.87,West,281,8.0,16.0,35,0.00,,,0.00,,2013-01-30 04:12:00,
2013-01-29 22:22:00,35.0,12.0,29.87,West,281,6.0,14.0,38,0.00,,,0.00,,2013-01-30 04:22:00,
2013-01-29 22:32:00,35.0,12.0,29.87,West,281,6.0,14.0,38,0.00,,,0.00,,2013-01-30 04:32:00,
2013-01-29 22:42:00,35.0,12.0,29.87,West,281,6.0,14.0,38,0.00,,,0.00,,2013-01-30 04:42:00,
2013-01-29 22:52:00,35.0,12.0,29.87,West,281,6.0,14.0,38,0.00,,,0.00,,2013-01-30 04:52:00,
2013-01-29 23:52:00,34.0,13.0,29.88,West,272,8.0,18.0,42,0.00,,,0.00,,2013-01-30 05:52:00,